Time,TemperatureF,DewpointF,PressureIn,WindDirection,WindDirectionDegrees,WindSpeedMPH,WindSpeedGustMPH,Humidity,HourlyPrecipIn,Conditions,Clouds,dailyrainin,SoftwareType,DateUTC
2013-02-19 00:03:00,19.0,-99.9,-100.00,WNW,293,13.0,29.0,-999,0.00,,,0.21,,2013-02-19 06:03:00,
2013-02-19 00:12:00,19.0,-99.9,-100.00,WNW,293,13.0,29.0,-999,0.00,,,0.21,,2013-02-19 06:12:00,
2013-02-19 00:22:00,19.0,-99.9,-100.00,WNW,293,13.0,29.0,-999,0.00,,,0.21,,2013-02-19 06:22:00,
2013-02-19 00:33:00,20.0,-99.9,-100.00,WNW,299,10.0,18.0,-999,0.00,,,0.21,,2013-02-19 06:33:00,
2013-02-19 00:42:00,20.0,-99.9,-100.00,WNW,299,10.0,18.0,-999,0.00,,,0.21,,2013-02-19 06:42:00,
2013-02-19 00:53:00,20.0,-99.9,-100.00,WNW,299,10.0,18.0,-999,0.00,,,0.21,,2013-02-19 06:53:00,
2013-02-19 01:02:00,20.0,-99.9,-100.00,West,268,8.0,24.0,-999,0.00,,,0.21,,2013-02-19 07:02:00,
2013-02-19 01:12:00,20.0,-99.9,-100.00,West,268,8.0,24.0,-999,0.00,,,0.21,,2013-02-19 07:12:00,
2013-02-19 01:22:00,20.0,-99.9,-100.00,West,268,8.0,24.0,-999,0.00,,,0.21,,2013-02-19 07:22:00,
2013-02-19 01:33:00,18.0,-99.9,-100.00,WNW,294,8.0,17.0,-999,0.00,,,0.21,,2013-02-19 07:33:00,
2013-02-19 01:42:00,18.0,-99.9,-100.00,WNW,294,8.0,17.0,-999,0.00,,,0.21,,2013-02-19 07:42:00,
2013-02-19 01:52:00,18.0,-99.9,-100.00,WNW,294,8.0,17.0,-999,0.00,,,0.21,,2013-02-19 07:52:00,
2013-02-19 02:02:00,19.0,-99.9,-100.00,West,281,5.0,13.0,-999,0.00,,,0.21,,2013-02-19 08:02:00,
2013-02-19 02:12:00,19.0,-99.9,-100.00,West,281,5.0,13.0,-999,0.00,,,0.21,,2013-02-19 08:12:00,
2013-02-19 02:22:00,19.0,-99.9,-100.00,West,281,5.0,13.0,-999,0.00,,,0.21,,2013-02-19 08:22:00,
2013-02-19 02:32:00,17.0,-99.9,-100.00,West,279,9.0,19.0,-999,0.00,,,0.21,,2013-02-19 08:32:00,
2013-02-19 02:42:00,17.0,-99.9,-100.00,West,279,9.0,19.0,-999,0.00,,,0.21,,2013-02-19 08:42:00,
2013-02-19 02:52:00,17.0,-99.9,-100.00,West,279,9.0,19.0,-999,0.00,,,0.21,,2013-02-19 08:52:00,
2013-02-19 03:02:00,18.0,-99.9,-100.00,West,273,9.0,17.0,-999,0.00,,,0.21,,2013-02-19 09:02:00,
2013-02-19 03:11:00,18.0,-99.9,-100.00,West,273,9.0,17.0,-999,0.00,,,0.21,,2013-02-19 09:11:00,
2013-02-19 03:22:00,18.0,-99.9,-100.00,West,273,9.0,17.0,-999,0.00,,,0.21,,2013-02-19 09:22:00,
2013-02-19 03:32:00,16.0,-99.9,-100.00,West,275,9.0,23.0,-999,0.00,,,0.21,,2013-02-19 09:32:00,
2013-02-19 03:42:00,16.0,-99.9,-100.00,West,275,9.0,23.0,-999,0.00,,,0.21,,2013-02-19 09:42:00,
2013-02-19 03:53:00,16.0,-99.9,-100.00,West,275,9.0,23.0,-999,0.00,,,0.21,,2013-02-19 09:53:00,
2013-02-19 04:02:00,16.0,-99.9,-100.00,WNW,291,9.0,19.0,-999,0.00,,,0.21,,2013-02-19 10:02:00,
2013-02-19 04:11:00,16.0,-99.9,-100.00,WNW,291,9.0,19.0,-999,0.00,,,0.21,,2013-02-19 10:11:00,
2013-02-19 04:22:00,16.0,-99.9,-100.00,WNW,291,9.0,19.0,-999,0.00,,,0.21,,2013-02-19 10:22:00,
2013-02-19 04:32:00,16.0,-99.9,-100.00,WSW,246,5.0,13.0,-999,0.00,,,0.21,,2013-02-19 10:32:00,
2013-02-19 04:42:00,16.0,-99.9,-100.00,WSW,246,5.0,13.0,-999,0.00,,,0.21,,2013-02-19 10:42:00,
2013-02-19 04:52:00,16.0,-99.9,-100.00,WSW,246,5.0,13.0,-999,0.00,,,0.21,,2013-02-19 10:52:00,
2013-02-19 05:02:00,15.0,-99.9,-100.00,West,273,7.0,22.0,-999,0.00,,,0.21,,2013-02-19 11:02:00,
2013-02-19 05:12:00,15.0,-99.9,-100.00,West,273,7.0,22.0,-999,0.00,,,0.21,,2013-02-19 11:12:00,
2013-02-19 05:22:00,15.0,-99.9,-100.00,West,273,7.0,22.0,-999,0.00,,,0.21,,2013-02-19 11:22:00,
2013-02-19 05:32:00,13.0,-99.9,-100.00,West,261,5.0,14.0,-999,0.00,,,0.21,,2013-02-19 11:32:00,
2013-02-19 05:42:00,13.0,-99.9,-100.00,West,261,5.0,14.0,-999,0.00,,,0.21,,2013-02-19 11:42:00,
2013-02-19 05:52:00,13.0,-99.9,-100.00,West,261,5.0,14.0,-999,0.00,,,0.21,,2013-02-19 11:52:00,
2013-02-19 06:02:00,13.0,-99.9,-100.00,West,271,7.0,13.0,-999,0.00,,,0.21,,2013-02-19 12:02:00,
2013-02-19 06:12:00,13.0,-99.9,-100.00,West,271,7.0,13.0,-999,0.00,,,0.21,,2013-02-19 12:12:00,
2013-02-19 06:22:00,13.0,-99.9,-100.00,West,271,7.0,13.0,-999,0.00,,,0.21,,2013-02-19 12:22:00,
2013-02-19 06:33:00,13.0,-99.9,-100.00,West,264,7.0,14.0,-999,0.00,,,0.21,,2013-02-19 12:33:00,
2013-02-19 06:42:00,13.0,-99.9,-100.00,West,264,7.0,14.0,-999,0.00,,,0.21,,2013-02-19 12:42:00,
2013-02-19 06:53:00,13.0,-99.9,-100.00,West,264,7.0,14.0,-999,0.00,,,0.21,,2013-02-19 12:53:00,
2013-02-19 07:02:00,12.0,-99.9,-100.00,WNW,297,6.0,10.0,-999,0.00,,,0.21,,2013-02-19 13:02:00,
2013-02-19 07:11:00,12.0,-99.9,-100.00,WNW,297,6.0,10.0,-999,0.00,,,0.21,,2013-02-19 13:11:00,
2013-02-19 07:22:00,12.0,-99.9,-100.00,WNW,297,6.0,10.0,-999,0.00,,,0.21,,2013-02-19 13:22:00,
2013-02-19 07:32:00,11.0,-99.9,-100.00,West,275,8.0,16.0,-999,0.00,,,0.21,,2013-02-19 13:32:00,
2013-02-19 07:42:00,11.0,-99.9,-100.00,West,275,8.0,16.0,-999,0.00,,,0.21,,2013-02-19 13:42:00,
2013-02-19 07:52:00,11.0,-99.9,-100.00,West,275,8.0,16.0,-999,0.00,,,0.21,,2013-02-19 13:52:00,
2013-02-19 08:02:00,11.0,-99.9,-100.00,West,279,8.0,13.0,-999,0.00,,,0.21,,2013-02-19 14:02:00,
2013-02-19 08:12:00,11.0,-99.9,-100.00,West,279,8.0,13.0,-999,0.00,,,0.21,,2013-02-19 14:12:00,
2013-02-19 08:22:00,11.0,-99.9,-100.00,West,279,8.0,13.0,-999,0.00,,,0.21,,2013-02-19 14:22:00,
2013-02-19 08:33:00,10.0,-99.9,-100.00,WNW,302,7.0,23.0,-999,0.00,,,0.21,,2013-02-19 14:33:00,
2013-02-19 08:42:00,10.0,-99.9,-100.00,WNW,302,7.0,23.0,-999,0.00,,,0.21,,2013-02-19 14:42:00,
2013-02-19 08:52:00,10.0,-99.9,-100.00,WNW,302,7.0,23.0,-999,0.00,,,0.21,,2013-02-19 14:52:00,
2013-02-19 09:02:00,10.0,-99.9,-100.00,WNW,299,8.0,19.0,-999,0.00,,,0.21,,2013-02-19 15:02:00,
2013-02-19 09:11:00,10.0,-99.9,-100.00,WNW,299,8.0,19.0,-999,0.00,,,0.21,,2013-02-19 15:11:00,
2013-02-19 09:22:00,10.0,-99.9,-100.00,WNW,299,8.0,19.0,-999,0.00,,,0.21,,2013-02-19 15:22:00,
2013-02-19 09:30:00,11.0,-99.9,-100.00,West,270,7.0,21.0,-999,0.00,,,0.21,,2013-02-19 15:30:00,
2013-02-19 09:32:00,10.0,-99.9,-100.00,WNW,284,13.0,24.0,-999,0.00,,,0.21,,2013-02-19 15:32:00,
2013-02-19 09:42:00,10.0,-99.9,-100.00,WNW,284,13.0,24.0,-999,0.00,,,0.21,,2013-02-19 15:42:00,
2013-02-19 09:52:00,10.0,-99.9,-100.00,WNW,284,13.0,24.0,-999,0.00,,,0.21,,2013-02-19 15:52:00,
2013-02-19 10:02:00,11.0,-99.9,-100.00,West,270,7.0,21.0,-999,0.00,,,0.21,,2013-02-19 16:02:00,
2013-02-19 10:12:00,11.0,-99.9,-100.00,West,270,7.0,21.0,-999,0.00,,,0.21,,2013-02-19 16:12:00,
2013-02-19 10:22:00,11.0,-99.9,-100.00,West,270,7.0,21.0,-999,0.00,,,0.21,,2013-02-19 16:22:00,
2013-02-19 11:01:00,12.0,-99.9,-100.00,West,276,9.0,15.0,-999,0.00,,,0.21,,2013-02-19 17:01:00,
2013-02-19 11:11:00,12.0,-99.9,-100.00,West,276,9.0,15.0,-999,0.00,,,0.21,,2013-02-19 17:11:00,
2013-02-19 11:22:00,12.0,-99.9,-100.00,West,276,9.0,15.0,-999,0.00,,,0.21,,2013-02-19 17:22:00,
2013-02-19 11:32:00,15.0,-99.9,-100.00,West,263,7.0,16.0,-999,0.00,,,0.21,,2013-02-19 17:32:00,
2013-02-19 11:42:00,15.0,-99.9,-100.00,West,263,7.0,16.0,-999,0.00,,,0.21,,2013-02-19 17:42:00,
2013-02-19 11:52:00,15.0,-99.9,-100.00,West,263,7.0,16.0,-999,0.00,,,0.21,,2013-02-19 17:52:00,
2013-02-19 12:02:00,16.0,-99.9,-100.00,WSW,239,6.0,16.0,-999,0.00,,,0.21,,2013-02-19 18:02:00,
2013-02-19 12:11:00,16.0,-99.9,-100.00,WSW,239,6.0,16.0,-999,0.00,,,0.21,,2013-02-19 18:11:00,
2013-02-19 12:22:00,16.0,-99.9,-100.00,WSW,239,6.0,16.0,-999,0.00,,,0.21,,2013-02-19 18:22:00,
2013-02-19 12:32:00,16.0,-99.9,-100.00,WNW,284,9.0,16.0,-999,0.00,,,0.21,,2013-02-19 18:32:00,
2013-02-19 12:42:00,16.0,-99.9,-100.00,WNW,284,9.0,16.0,-999,0.00,,,0.21,,2013-02-19 18:42:00,
2013-02-19 12:52:00,16.0,-99.9,-100.00,WNW,284,9.0,16.0,-999,0.00,,,0.21,,2013-02-19 18:52:00,
2013-02-19 13:01:00,18.0,-99.9,-100.00,West,266,8.0,17.0,-999,0.00,,,0.21,,2013-02-19 19:01:00,
2013-02-19 13:11:00,18.0,-99.9,-100.00,West,266,8.0,17.0,-999,0.00,,,0.21,,2013-02-19 19:11:00,
2013-02-19 13:22:00,18.0,-99.9,-100.00,West,266,8.0,17.0,-999,0.00,,,0.21,,2013-02-19 19:22:00,
2013-02-19 13:32:00,19.0,-99.9,-100.00,WNW,282,6.0,16.0,-999,0.00,,,0.21,,2013-02-19 19:32:00,
2013-02-19 13:42:00,19.0,-99.9,-100.00,WNW,282,6.0,16.0,-999,0.00,,,0.21,,2013-02-19 19:42:00,
2013-02-19 13:52:00,19.0,-99.9,-100.00,WNW,282,6.0,16.0,-999,0.00,,,0.21,,2013-02-19 19:52:00,
2013-02-19 14:02:00,20.0,-99.9,-100.00,WNW,293,8.0,20.0,-999,0.00,,,0.21,,2013-02-19 20:02:00,
2013-02-19 14:12:00,20.0,-99.9,-100.00,WNW,293,8.0,20.0,-999,0.00,,,0.21,,2013-02-19 20:12:00,
2013-02-19 14:22:00,20.0,-99.9,-100.00,WNW,293,8.0,20.0,-999,0.00,,,0.21,,2013-02-19 20:22:00,
2013-02-19 14:30:00,22.0,-99.9,-100.00,West,276,7.0,16.0,-999,0.00,,,0.21,,2013-02-19 20:30:00,
2013-02-19 14:32:00,21.0,-99.9,-100.00,WSW,255,10.0,17.0,-999,0.00,,,0.21,,2013-02-19 20:32:00,
2013-02-19 14:42:00,21.0,-99.9,-100.00,WSW,255,10.0,17.0,-999,0.00,,,0.21,,2013-02-19 20:42:00,
2013-02-19 14:52:00,21.0,-99.9,-100.00,WSW,255,10.0,17.0,-999,0.00,,,0.21,,2013-02-19 20:52:00,
2013-02-19 15:02:00,22.0,-99.9,-100.00,West,276,7.0,16.0,-999,0.00,,,0.21,,2013-02-19 21:02:00,
2013-02-19 15:12:00,22.0,-99.9,-100.00,West,276,7.0,16.0,-999,0.00,,,0.21,,2013-02-19 21:12:00,
2013-02-19 15:22:00,22.0,-99.9,-100.00,West,276,7.0,16.0,-999,0.00,,,0.21,,2013-02-19 21:22:00,
2013-02-19 15:30:00,23.0,-99.9,-100.00,West,273,10.0,19.0,-999,0.00,,,0.14,,2013-02-19 21:30:00,
2013-02-19 15:42:00,23.0,-99.9,-100.00,West,277,11.0,21.0,-999,0.00,,,0.19,,2013-02-19 21:42:00,
2013-02-19 15:52:00,23.0,-99.9,-100.00,West,277,11.0,21.0,-999,0.00,,,0.19,,2013-02-19 21:52:00,
2013-02-19 16:02:00,23.0,-99.9,-100.00,West,273,10.0,19.0,-999,0.00,,,0.14,,2013-02-19 22:02:00,
2013-02-19 16:11:00,23.0,-99.9,-100.00,West,273,10.0,19.0,-999,0.00,,,0.14,,2013-02-19 22:11:00,
2013-02-19 16:22:00,23.0,-99.9,-100.00,West,273,10.0,19.0,-999,0.00,,,0.14,,2013-02-19 22:22:00,
2013-02-19 16:42:00,23.0,-99.9,-100.00,WNW,299,12.0,20.0,-999,0.00,,,0.06,,2013-02-19 22:42:00,
2013-02-19 16:52:00,23.0,-99.9,-100.00,WNW,299,12.0,20.0,-999,0.00,,,0.06,,2013-02-19 22:52:00,
2013-02-19 17:01:00,23.0,-99.9,-100.00,West,270,9.0,15.0,-999,0.00,,,0.04,,2013-02-19 23:01:00,
2013-02-19 17:11:00,23.0,-99.9,-100.00,West,270,9.0,15.0,-999,0.00,,,0.04,,2013-02-19 23:11:00,
2013-02-19 17:21:00,23.0,-99.9,-100.00,West,270,9.0,15.0,-999,0.00,,,0.04,,2013-02-19 23:21:00,
2013-02-19 17:32:00,23.0,-99.9,-100.00,WNW,289,12.0,19.0,-999,0.00,,,0.02,,2013-02-19 23:32:00,
2013-02-19 17:42:00,23.0,-99.9,-100.00,WNW,289,12.0,19.0,-999,0.00,,,0.02,,2013-02-19 23:42:00,
2013-02-19 17:52:00,23.0,-99.9,-100.00,WNW,289,12.0,19.0,-999,0.00,,,0.02,,2013-02-19 23:52:00,
2013-02-19 18:02:00,22.0,-99.9,-100.00,WNW,288,10.0,15.0,-999,0.00,,,0.01,,2013-02-20 00:02:00,
2013-02-19 18:12:00,22.0,-99.9,-100.00,WNW,288,10.0,15.0,-999,0.00,,,0.01,,2013-02-20 00:12:00,
2013-02-19 18:22:00,22.0,-99.9,-100.00,WNW,288,10.0,15.0,-999,0.00,,,0.01,,2013-02-20 00:22:00,
2013-02-19 18:32:00,21.0,-99.9,-100.00,WNW,291,6.0,15.0,-999,0.00,,,0.01,,2013-02-20 00:32:00,
2013-02-19 18:42:00,21.0,-99.9,-100.00,WNW,291,6.0,15.0,-999,0.00,,,0.01,,2013-02-20 00:42:00,
2013-02-19 18:52:00,21.0,-99.9,-100.00,WNW,291,6.0,15.0,-999,0.00,,,0.01,,2013-02-20 00:52:00,
2013-02-19 19:02:00,20.0,-99.9,-100.00,West,279,6.0,13.0,-999,0.00,,,0.01,,2013-02-20 01:02:00,
2013-02-19 19:11:00,20.0,-99.9,-100.00,West,279,6.0,13.0,-999,0.00,,,0.01,,2013-02-20 01:11:00,
2013-02-19 19:22:00,20.0,-99.9,-100.00,West,279,6.0,13.0,-999,0.00,,,0.01,,2013-02-20 01:22:00,
2013-02-19 19:32:00,20.0,-99.9,-100.00,WNW,286,5.0,9.0,-999,0.00,,,0.01,,2013-02-20 01:32:00,
2013-02-19 19:42:00,20.0,-99.9,-100.00,WNW,286,5.0,9.0,-999,0.00,,,0.01,,2013-02-20 01:42:00,
2013-02-19 19:52:00,20.0,-99.9,-100.00,WNW,286,5.0,9.0,-999,0.00,,,0.01,,2013-02-20 01:52:00,
2013-02-19 20:02:00,19.0,-99.9,-100.00,West,280,5.0,9.0,-999,0.00,,,0.00,,2013-02-20 02:02:00,
2013-02-19 20:11:00,19.0,-99.9,-100.00,West,280,5.0,9.0,-999,0.00,,,0.00,,2013-02-20 02:11:00,
2013-02-19 20:22:00,19.0,-99.9,-100.00,West,280,5.0,9.0,-999,0.00,,,0.00,,2013-02-20 02:22:00,
2013-02-19 20:32:00,19.0,-99.9,-100.00,WNW,293,7.0,15.0,-999,0.00,,,0.00,,2013-02-20 02:32:00,
2013-02-19 20:42:00,19.0,-99.9,-100.00,WNW,293,7.0,15.0,-999,0.00,,,0.00,,2013-02-20 02:42:00,
2013-02-19 20:52:00,19.0,-99.9,-100.00,WNW,293,7.0,15.0,-999,0.00,,,0.00,,2013-02-20 02:52:00,
2013-02-19 21:02:00,18.0,-99.9,-100.00,WNW,286,8.0,13.0,-999,0.00,,,0.00,,2013-02-20 03:02:00,
2013-02-19 21:12:00,18.0,-99.9,-100.00,WNW,286,8.0,13.0,-999,0.00,,,0.00,,2013-02-20 03:12:00,
2013-02-19 21:22:00,18.0,-99.9,-100.00,WNW,286,8.0,13.0,-999,0.00,,,0.00,,2013-02-20 03:22:00,
2013-02-19 21:32:00,18.0,-99.9,-100.00,WNW,301,9.0,14.0,-999,0.00,,,0.00,,2013-02-20 03:32:00,
2013-02-19 21:42:00,18.0,-99.9,-100.00,WNW,301,9.0,14.0,-999,0.00,,,0.00,,2013-02-20 03:42:00,
2013-02-19 21:52:00,18.0,-99.9,-100.00,WNW,301,9.0,14.0,-999,0.00,,,0.00,,2013-02-20 03:52:00,
2013-02-19 22:02:00,16.0,-99.9,-100.00,NW,314,10.0,17.0,-999,0.00,,,0.00,,2013-02-20 04:02:00,
2013-02-19 22:11:00,16.0,-99.9,-100.00,NW,314,10.0,17.0,-999,0.00,,,0.00,,2013-02-20 04:11:00,
2013-02-19 22:22:00,16.0,-99.9,-100.00,NW,314,10.0,17.0,-999,0.00,,,0.00,,2013-02-20 04:22:00,
2013-02-19 22:30:00,12.0,-99.9,-100.00,NNW,332,12.0,19.0,-999,0.00,,,-99.99,,2013-02-20 04:30:00,
2013-02-19 22:32:00,15.0,-99.9,-100.00,WNW,293,12.0,17.0,-999,0.00,,,0.00,,2013-02-20 04:32:00,
2013-02-19 22:42:00,15.0,-99.9,-100.00,WNW,293,12.0,17.0,-999,0.00,,,0.00,,2013-02-20 04:42:00,
2013-02-19 22:52:00,15.0,-99.9,-100.00,WNW,293,12.0,17.0,-999,0.00,,,0.00,,2013-02-20 04:52:00,
2013-02-19 23:02:00,12.0,-99.9,-100.00,NNW,332,12.0,19.0,-999,0.00,,,-99.99,,2013-02-20 05:02:00,
2013-02-19 23:12:00,12.0,-99.9,-100.00,NNW,332,12.0,19.0,-999,0.00,,,-99.99,,2013-02-20 05:12:00,
2013-02-19 23:23:00,12.0,-99.9,-100.00,NNW,332,12.0,19.0,-999,0.00,,,-99.99,,2013-02-20 05:23:00,